This is the latest recevied weather packets stored in our database for station/object N9OJR. If no packets are shown the sender has not sent any weather packets the latest 10 day(s).
| Time | Temp. | Humidity | Pressure | Rain* | Wind** | Luminosity | Snow |
|---|---|---|---|---|---|---|---|
| 1777899532 | 13.33° C | 64% | 1005.8 hPa | 0 mm | - | 344 W/m² | - |
| 1777899230 | 13.89° C | 63% | 1005.6 hPa | 0 mm | - | 327 W/m² | - |
| 1777898927 | 13.33° C | 64% | 1005.8 hPa | 0 mm | - | 307 W/m² | - |
| 1777898624 | 13.33° C | 64% | 1005.8 hPa | 0 mm | - | 289 W/m² | - |
| 1777898321 | 12.78° C | 66% | 1005.9 hPa | 0 mm | - | 262 W/m² | - |
| 1777898018 | 12.22° C | 67% | 1006 hPa | 0 mm | - | 249 W/m² | - |
| 1777897714 | 11.67° C | 67% | 1006 hPa | 0 mm | - | 243 W/m² | - |
| 1777897411 | 11.11° C | 69% | 1005.9 hPa | 0 mm | - | 187 W/m² | - |
| 1777897107 | 11.11° C | 68% | 1005.8 hPa | 0 mm | - | 161 W/m² | - |
| 1777896804 | 11.11° C | 69% | 1005.8 hPa | 0 mm | - | 103 W/m² | - |
| 1777896501 | 11.11° C | 69% | 1005.9 hPa | 0 mm | - | 92 W/m² | - |
| 1777896198 | 10.56° C | 70% | 1005.6 hPa | 0 mm | - | 69 W/m² | - |
| 1777895896 | 10.56° C | 70% | 1005.8 hPa | 0 mm | - | 101 W/m² | - |
| 1777895593 | 10° C | 71% | 1005.7 hPa | 0 mm | - | 57 W/m² | - |
| 1777895290 | 10° C | 71% | 1005.8 hPa | 0 mm | - | 58 W/m² | - |
| 1777894989 | 10° C | 72% | 1005.8 hPa | 0 mm | - | 68 W/m² | - |
| 1777894686 | 9.44° C | 72% | 1005.7 hPa | 0 mm | - | 56 W/m² | - |
| 1777894382 | 8.89° C | 73% | 1005.7 hPa | 0 mm | - | 46 W/m² | - |
| 1777894080 | 8.89° C | 74% | 1005.6 hPa | 0 mm | - | 39 W/m² | - |
| 1777893776 | 8.89° C | 74% | 1005.7 hPa | 0 mm | - | 33 W/m² | - |
| 1777893473 | 8.89° C | 74% | 1005.7 hPa | 0 mm | - | 30 W/m² | - |
| 1777893169 | 8.33° C | 75% | 1005.5 hPa | 0 mm | - | 29 W/m² | - |
| 1777892866 | 8.33° C | 75% | 1005.5 hPa | 0 mm | - | 26 W/m² | - |
| 1777892562 | 8.33° C | 75% | 1005.6 hPa | 0 mm | - | 23 W/m² | - |
| 1777892258 | 8.33° C | 76% | 1005.6 hPa | 0 mm | - | 20 W/m² | - |
* Rain latest hour (hover to see other rain measurements)
** Current wind speed in m/s (hover to see current wind gust speed)